Home   Weather   Naumburg (Saale)   Past weeks

Flag for Germany Past Weather in Naumburg (Saale), Saxony-Anhalt, Germany — Yesterday and Last 2 Weeks

Now
68 °F

Sunny.


Feels Like: 68 °F
Forecast: 52 / 67 °F
Wind: 16 mph from West

Location: Leipzig-Schkeuditz

Current Time: Aug 19, 2017 at 6:58:19 pm

Latest Report: Aug 19, 2017 at 6:20 pm


Visibility: 10 mi

Pressure: 30.04 "Hg

Humidity: 46%

Dew Point: 46 °F

Location of Naumburg (Saale)Location

Past Weather in Naumburg (Saale) — Graph

°F

Naumburg (Saale) Temperature Yesterday

Maximum temperature yesterday: 82 °F (at 4:20 pm)
Minimum temperature yesterday: 63 °F (at 5:20 am)
Average temperature yesterday: 71 °F

High & Low Weather Summary for the Past Weeks

 TemperatureHumidityPressure
High84 °F (Aug 15, 2:23 pm)100% (Aug 5, 7:20 pm)30.21 "Hg (Aug 5, 7:20 pm)
Low52 °F (Aug 14, 5:20 am)30% (Aug 7, 3:50 pm)29.77 "Hg (Aug 18, 7:20 pm)
Average66 °F73%30.03 "Hg
* Reported Aug 4 5:20 pm — Aug 19 5:50 pm, Naumburg (Saale). Weather by CustomWeather, © 2017

Note: Actual official high and low records may vary slightly from our data, if they occured in-between our weather recording intervals... More about our weather records

Advertising

Naumburg (Saale) Weather History for the Previous 24 Hours

Scroll right to see more
 ConditionsComfort  
Time TempWeatherWind HumidityBarometerVisibility
5:50 pm
Sat, Aug 19
68 °FSunny.15 mph49%30.07 "Hg10 mi
5:20 pm68 °FSunny.17 mph49%30.07 "Hg10 mi
4:50 pm68 °FSunny.18 mph46%30.04 "Hg10 mi
4:20 pm70 °FSunny.20 mph40%30.04 "Hg10 mi
3:50 pm70 °FSunny.22 mph40%30.04 "Hg10 mi
3:20 pm70 °FSunny.18 mph40%30.04 "Hg10 mi
2:50 pm70 °FSunny.17 mph43%30.04 "Hg10 mi
2:20 pm70 °FSunny.16 mph46%30.04 "Hg10 mi
1:50 pm70 °FScattered clouds.17 mph46%30.04 "HgN/A
1:20 pm68 °FScattered clouds.18 mph53%30.04 "HgN/A
12:50 pm66 °FScattered clouds.18 mph52%30.04 "HgN/A
12:20 pm66 °FScattered clouds.21 mph60%30.04 "HgN/A
11:50 am64 °FScattered clouds.12 mph68%30.04 "HgN/A
11:20 am61 °FLight rain. Broken clouds.13 mph72%30.04 "HgN/A
10:50 am59 °FLight rain. Broken clouds.10 mph82%30.04 "HgN/A
10:20 am61 °FBroken clouds.17 mph77%30.04 "HgN/A
9:50 am59 °FLight rain. Broken clouds.14 mph82%30.04 "HgN/A
8:50 am59 °FPartly sunny.16 mph82%30.01 "HgN/A
8:20 am59 °FPartly sunny.12 mph88%30.01 "HgN/A
7:50 am59 °FPartly sunny.9 mph88%29.98 "HgN/A
7:20 am59 °FPartly sunny.9 mph88%29.98 "HgN/A
6:50 am61 °FBroken clouds.8 mph88%29.98 "HgN/A
6:20 am61 °FPartly sunny.13 mph88%29.95 "HgN/A
5:50 am61 °FPartly cloudy.9 mph88%29.95 "HgN/A
5:20 am61 °FPassing clouds.7 mph88%29.95 "HgN/A
4:50 am61 °FPartly cloudy.12 mph88%29.95 "HgN/A
4:20 am61 °FClear.17 mph94%29.92 "Hg10 mi
3:50 am61 °FClear.14 mph94%29.92 "Hg10 mi
3:20 am61 °FClear.15 mph94%29.92 "Hg10 mi
2:50 am61 °FClear.12 mph94%29.92 "Hg10 mi
2:20 am61 °FClear.10 mph94%29.92 "Hg10 mi
1:50 am63 °FClear.15 mph94%29.92 "Hg10 mi
1:20 am63 °FClear.14 mph94%29.92 "Hg10 mi
12:50 am63 °FPartly cloudy.13 mph94%29.92 "HgN/A
12:20 am63 °FPartly cloudy.10 mph100%29.92 "HgN/A
11:50 pm
Fri, Aug 18
63 °FScattered showers. Partly cloudy.6 mph100%29.92 "HgN/A
11:23 pm64 °FRain showers. Partly cloudy.8 mph100%29.89 "HgN/A
11:20 pm64 °FLight rain. Partly cloudy.9 mph100%29.92 "HgN/A
10:50 pm64 °FLight rain. Partly cloudy.9 mph100%29.89 "HgN/A
10:31 pm66 °FLight rain. Partly cloudy.9 mph100%29.86 "HgN/A
10:20 pm66 °FLight rain. Partly cloudy.9 mph100%29.86 "HgN/A
9:50 pm66 °FLight rain. Passing clouds.8 mph100%29.86 "HgN/A
9:20 pm66 °FScattered showers. Clear.6 mph100%29.83 "HgN/A
8:50 pm66 °FSprinkles. Passing clouds.8 mph100%29.83 "HgN/A
8:20 pm66 °FThundershowers. Partly sunny.7 mph94%29.86 "HgN/A
8:00 pm66 °FThundershowers. Broken clouds.12 mph94%29.83 "HgN/A
7:50 pm64 °FMild.24 mph100%29.83 "HgN/A
7:31 pm75 °FThunderstorms. Broken clouds.5 mph74%29.77 "HgN/A
7:20 pm75 °FSprinkles. Broken clouds.5 mph74%29.77 "HgN/A
6:50 pm77 °FScattered clouds.5 mph74%29.80 "HgN/A
6:20 pm75 °FSprinkles. Broken clouds.5 mph74%29.80 "HgN/A
Weather by CustomWeather, © 2017

See weather overviewHow to use our weather pages